• Processing (Info)

  • MPEC 1995-U01 : 1995 UB

    The following Minor Planet Electronic Circular may be linked-to from your own Web pages, but must not otherwise be redistributed electronically.

    A form allowing access to any MPEC is at the bottom of this page.


    Read MPEC 1995-T07 Read MPEC 1995-U02


    M.P.E.C. 1995-U01                                Issued 1995 Oct. 19, 17:12 UT
    
         The Minor Planet Electronic Circulars contain information on unusual
             minor planets and routine data on comets.  They are published
       on behalf of Commission 20 of the International Astronomical Union by the
              Minor Planet Center, Smithsonian Astrophysical Observatory,
                              Cambridge, MA 02138, U.S.A.
    
                 BMARSDEN@CFA.HARVARD.EDU or GWILLIAMS@CFA.HARVARD.EDU
    
                                        1995 UB
    
    Observations:
         J95U00B* C1995 10 18.13640 00 24 49.95 +04 50 57.2          17.3 V      691
         J95U00B  C1995 10 18.18941 00 29 45.25 +04 15 09.1                      691
         J95U00B  C1995 10 18.23156 00 33 24.01 +03 48 14.2                      691
         J95U00B  C1995 10 18.28034 00 37 21.36 +03 18 47.4          17.4 V      691
         J95U00B  C1995 10 18.35552 00 43 00.40 +02 36 38.5                      691
         J95U00B  C1995 10 18.41808 00 47 22.73 +02 04 21.3          17.8 V      691
         J95U00B  C1995 10 19.21286 01 25 36.85 -02 18 30.3          18.3 V      691
         J95U00B  C1995 10 19.39745 01 30 21.67 -02 55 35.1          18.9 V      691
    
    Observer details:
    691 Steward Observatory, Kitt Peak.  Observer T. Gehrels.  Measurers
        T. Gehrels, J. V. Scotti.  0.9-m Spacewatch telescope.
    
    Orbital elements:
    1995 UB
    Epoch 1995 Oct. 10.0 TT = JDT 2450000.5                 Marsden
    M  24.69691              (2000.0)            P               Q
    n   0.59471576     Peri.  112.21032     +0.72099482     +0.68995783
    a   1.4004354      Node   204.31352     -0.67924446     +0.68536628
    e   0.4125549      Incl.    8.97392     -0.13708911     +0.23287607
    P   1.66           H    27.0          G   0.15
    From 8 observations 1995 Oct. 18-19.
    
    Ephemeris:
    1995 UB                  a,e,i = 1.40, 0.41, 9                   q = 0.8227
    Date    TT    R. A. (2000) Decl.     Delta      r     Elong.  Phase     V
    1995 10 15    15 44.01   +16 42.8    0.016    0.986    43.8   135.5    24.3
    1995 10 16    16 37.24   +20 38.6    0.0096   0.992    56.2   123.4    22.0
    1995 10 17    19 56.20   +24 50.5    0.0051   0.998   100.6    79.1    18.3
    1995 10 18    00 08.81   +06 44.6    0.0078   1.004   159.8    20.0    17.5
    1995 10 19    01 18.05   -01 21.5    0.014    1.010   168.3    11.6    18.5
    1995 10 20    01 43.51   -04 20.6    0.021    1.016   165.5    14.2    19.4
    1995 10 21    01 56.37   -05 49.1    0.028    1.022   163.3    16.3    20.1
    1995 10 22    02 04.06   -06 40.8    0.035    1.028   161.8    17.6    20.7
    1995 10 23    02 09.15   -07 14.1    0.042    1.035   160.9    18.4    21.1
    1995 10 24    02 12.76   -07 36.9    0.049    1.041   160.2    18.9    21.5
    1995 10 25    02 15.43   -07 53.0    0.056    1.047   159.7    19.3    21.8
    1995 10 26    02 17.49   -08 04.5    0.063    1.054   159.2    19.5    22.1
    1995 10 27    02 19.12   -08 12.9    0.071    1.060   158.9    19.8    22.4
    1995 10 28    02 20.44   -08 18.8    0.078    1.066   158.5    19.9    22.6
    1995 10 29    02 21.53   -08 22.8    0.085    1.073   158.2    20.1    22.8
    1995 10 30    02 22.45   -08 25.3    0.092    1.079   157.9    20.2    23.0
    
                           (Last issue was M.P.E.C. 1995-T07)
    
    Brian G. Marsden                                              M.P.E.C. 1995-U01
    

    Read MPEC 1995-T07 Read MPEC 1995-U02


    MPEC number:

    Enter an MPEC number in one of the following forms:

    • 1997-B01 (the full form)
    • J97B01 (the packed version of the full form)
    • B01 (the abbreviated form)